FW8389 Weather Reports


time (UTC)temp
F
wind
direction
speed
knots
gust
knots
rain 1hr
in
rain 24hr
in
rain mn
in
humidity
%
barometer
mb
20260510164503 47 271 12.2 23.5 0.00 0.24 0.00 56 1012.7
20260510163624 46 264 11.3 20.0 0.00 0.24 0.00 59 1012.6
20260510162703 46 266 11.3 22.6 0.00 0.24 0.00 57 1012.6
20260510161824 47 260 10.4 20.0 0.00 0.24 0.00 58 1012.6
20260510160903 46 261 11.3 20.0 0.00 0.24 0.00 61 1012.6
20260510160003 45 270 11.3 20.0 0.00 0.24 0.00 59 1012.5
20260510155403 46 268 10.4 20.9 0.00 0.24 0.00 60 1012.5
20260510154503 46 289 11.3 21.7 0.00 0.24 0.00 60 1012.5
20260510153603 45 268 13.0 23.5 0.00 0.24 0.00 61 1012.4
20260510152703 45 270 12.2 21.7 0.00 0.24 0.00 60 1012.2
20260510151803 45 269 12.2 19.1 0.00 0.24 0.00 60 1012.1
20260510150924 45 290 10.4 18.2 0.00 0.24 0.00 61 1012.0
20260510150003 45 286 11.3 21.7 0.00 0.24 0.00 61 1011.8
20260510145403 45 300 9.6 18.2 0.00 0.24 0.00 61 1011.7
20260510144503 45 290 10.4 19.1 0.00 0.24 0.00 59 1011.5
20260510143603 45 292 8.7 16.5 0.00 0.24 0.00 62 1011.4
20260510142724 44 272 11.3 20.0 0.00 0.24 0.00 61 1011.4
20260510141803 44 284 8.7 17.4 0.00 0.24 0.00 61 1011.1
20260510140924 44 279 10.4 18.2 0.00 0.24 0.00 63 1011.0
20260510140003 44 301 8.7 15.6 0.00 0.24 0.00 64 1011.0
20260510135403 44 303 8.7 14.8 0.00 0.24 0.00 61 1010.8
20260510134503 43 281 9.6 14.8 0.00 0.24 0.00 68 1010.7
20260510133603 43 298 7.8 14.8 0.00 0.24 0.00 69 1010.6
20260510132703 42 285 10.4 16.5 0.00 0.24 0.00 71 1010.6
20260510131803 43 308 7.8 15.6 0.00 0.24 0.00 71 1010.4
20260510130903 42 307 7.8 14.8 0.00 0.24 0.00 74 1010.4
20260510130003 41 279 9.6 16.5 0.00 0.24 0.00 76 1010.3
20260510125403 41 287 8.7 16.5 0.00 0.24 0.00 76 1010.2
20260510124503 40 285 9.6 18.2 0.00 0.24 0.00 78 1010.2
20260510123603 40 286 7.8 13.9 0.00 0.24 0.00 79 1010.1
20260510122724 39 289 7.8 13.9 0.00 0.24 0.00 80 1010.0
20260510121803 38 283 7.8 14.8 0.00 0.24 0.00 81 1009.9
20260510120903 38 283 9.6 14.8 0.00 0.24 0.00 81 1009.7
20260510120003 38 280 9.6 18.2 0.00 0.24 0.00 82 1009.7
20260510115403 37 269 10.4 15.6 0.00 0.24 0.00 82 1009.6
20260510114503 37 265 8.7 14.8 0.00 0.24 0.00 82 1009.5
20260510113603 36 267 9.6 16.5 0.00 0.24 0.00 83 1009.2
20260510112703 36 267 8.7 13.9 0.00 0.24 0.00 83 1009.1
20260510111803 36 266 7.8 12.2 0.00 0.24 0.00 84 1008.9
20260510110903 36 265 7.8 13.0 0.00 0.24 0.00 84 1008.8
20260510110003 35 262 7.8 13.0 0.00 0.24 0.00 85 1008.5
20260510105403 35 264 7.8 13.0 0.00 0.24 0.00 85 1008.4
20260510104503 35 264 8.7 15.6 0.00 0.24 0.00 86 1008.3
20260510103603 34 267 7.8 13.0 0.00 0.24 0.00 86 1008.1
20260510102703 34 270 7.8 11.3 0.00 0.24 0.00 86 1008.1
20260510101803 34 269 7.8 12.2 0.00 0.24 0.00 85 1007.9
20260510100903 34 260 7.0 12.2 0.00 0.24 0.00 85 1007.6
20260510100003 34 262 7.0 12.2 0.00 0.24 0.00 84 1007.5
20260510095403 34 260 7.0 11.3 0.00 0.24 0.00 84 1007.4
20260510094503 35 254 6.1 10.4 0.00 0.24 0.00 83 1007.3
20260510093603 35 251 5.2 12.2 0.00 0.24 0.00 83 1007.2
20260510092703 35 247 4.3 10.4 0.00 0.24 0.00 83 1007.1
20260510091803 35 249 4.3 10.4 0.00 0.24 0.00 83 1007.0
20260510090903 35 250 5.2 8.7 0.00 0.24 0.00 82 1006.8
20260510090003 36 250 5.2 9.6 0.00 0.24 0.00 82 1006.7
20260510085403 36 253 6.1 16.5 0.00 0.24 0.00 82 1006.8
20260510084524 36 256 7.8 16.5 0.00 0.24 0.00 82 1006.5
20260510083624 36 254 7.0 13.0 0.00 0.24 0.00 81 1006.6
20260510082703 36 254 6.1 12.2 0.00 0.24 0.00 81 1006.4
20260510081803 36 250 4.3 8.7 0.00 0.24 0.00 81 1006.3
20260510080903 36 251 5.2 9.6 0.00 0.24 0.00 81 1006.2
20260510080003 36 252 3.5 7.8 0.00 0.24 0.00 81 1006.2
20260510075403 36 252 3.5 7.8 0.00 0.24 0.00 81 1006.1
20260510074503 36 250 3.5 7.8 0.00 0.24 0.00 80 1006.1
20260510073603 36 257 3.5 10.4 0.00 0.24 0.00 80 1005.9
20260510072703 37 257 3.5 6.1 0.00 0.24 0.00 79 1005.8
20260510071803 37 257 4.3 7.8 0.00 0.24 0.00 79 1005.8
20260510070903 37 255 3.5 7.0 0.00 0.24 0.00 79 1005.7
20260510070003 37 259 3.5 7.8 0.00 0.24 0.00 79 1005.6
20260510065403 37 258 4.3 10.4 0.00 0.24 0.00 78 1005.7
20260510064503 37 258 5.2 10.4 0.00 0.24 0.00 78 1005.6
20260510063603 37 260 6.1 11.3 0.00 0.24 0.00 78 1005.6
20260510062724 38 266 7.0 12.2 0.00 0.24 0.00 77 1005.5
20260510061803 38 266 7.0 13.0 0.00 0.24 0.00 77 1005.6
20260510060903 38 265 7.0 12.2 0.00 0.24 0.00 77 1005.5
20260510060003 38 271 7.8 13.0 0.00 0.24 0.00 77 1005.5
20260510055403 38 277 7.0 14.8 0.00 0.24 0.00 77 1005.4
20260510054503 38 277 7.8 13.0 0.00 0.24 0.00 78 1005.4
20260510053603 39 273 10.4 17.4 0.00 0.24 0.00 77 1005.4
20260510052703 39 268 9.6 17.4 0.00 0.24 0.00 78 1005.4
20260510051803 39 271 7.8 13.0 0.00 0.24 0.00 77 1005.3
20260510050903 39 268 9.6 13.9 0.00 0.24 0.00 77 1005.2
20260510050003 40 261 7.8 13.0 0.00 0.24 0.00 77 1005.0
20260510045403 40 260 7.0 13.9 0.00 0.24 0.00 76 1004.9
20260510044503 40 260 7.8 13.9 0.00 0.24 0.00 75 1004.8
20260510043603 40 266 7.8 13.9 0.00 0.24 0.00 74 1004.7
20260510042703 40 262 7.0 12.2 0.00 0.24 0.00 74 1004.6
20260510041804 41 257 4.3 11.3 0.00 0.24 0.00 74 1004.2
20260510040903 41 248 3.5 10.4 0.00 0.24 0.00 73 1004.1
20260510040003 41 252 3.5 6.1 0.00 0.24 0.00 73 1004.0
20260510035424 42 268 5.2 11.3 0.00 0.24 0.24 72 1004.0
20260510034503 42 265 6.1 12.2 0.00 0.24 0.24 71 1003.7
20260510033603 42 258 3.5 8.7 0.00 0.24 0.24 71 1003.6
20260510032703 42 258 2.6 7.0 0.00 0.24 0.24 70 1003.5
20260510031803 43 259 3.5 7.0 0.00 0.24 0.24 69 1003.7
20260510030903 43 261 3.5 7.8 0.00 0.24 0.24 69 1003.6
20260510030024 43 259 2.6 6.1 0.00 0.24 0.24 69 1003.5
20260510025424 43 259 2.6 6.1 0.00 0.24 0.24 68 1003.4
20260510024503 43 259 3.5 8.7 0.00 0.24 0.24 69 1003.4
20260510023603 44 261 4.3 8.7 0.00 0.24 0.24 68 1003.3
20260510022703 44 266 6.1 10.4 0.00 0.24 0.24 67 1003.3
20260510021803 45 275 7.0 11.3 0.00 0.24 0.24 67 1003.2
20260510020903 45 283 6.1 11.3 0.00 0.24 0.24 68 1003.0
20260510020003 45 276 6.1 9.6 0.00 0.24 0.24 69 1002.8
20260510015403 45 276 6.1 9.6 0.00 0.24 0.24 70 1002.7
20260510014503 45 285 4.3 9.6 0.00 0.24 0.24 70 1002.4
20260510013603 46 282 6.1 12.2 0.00 0.24 0.24 69 1002.3
20260510012724 46 288 7.0 14.8 0.00 0.24 0.24 69 1002.3
20260510011803 46 301 4.3 9.6 0.00 0.24 0.24 69 1002.1
20260510010903 47 299 6.1 13.0 0.00 0.24 0.24 67 1001.8
20260510010024 47 288 6.1 13.0 0.00 0.24 0.24 67 1001.7
20260510005403 47 301 4.3 10.4 0.00 0.24 0.24 68 1001.5
20260510004503 47 303 4.3 7.8 0.00 0.24 0.24 69 1001.4
20260510003624 48 320 6.1 13.0 0.00 0.24 0.24 68 1001.2
20260510002724 48 302 5.2 9.6 0.00 0.24 0.24 70 1001.1
20260510001803 48 304 7.0 15.6 0.00 0.24 0.24 71 1001.2
20260510000924 48 287 7.0 13.0 0.00 0.24 0.24 73 1001.0
20260510000003 49 284 8.7 17.4 0.00 0.24 0.24 72 1000.8
20260509235403 49 285 7.8 16.5 0.00 0.24 0.24 73 1000.7
20260509234524 50 291 9.6 16.5 0.00 0.24 0.24 72 1000.4
20260509233603 50 297 8.7 18.2 0.00 0.24 0.24 72 1000.4
20260509232703 51 311 9.6 17.4 0.00 0.24 0.24 72 1000.1
20260509231824 52 309 9.6 18.2 0.00 0.24 0.24 71 999.7
20260509230903 53 285 10.4 20.9 0.00 0.24 0.24 73 999.2
20260509230003 54 269 11.3 21.7 0.00 0.24 0.24 75 998.9
20260509225403 53 260 8.7 18.2 0.00 0.24 0.24 79 998.7
20260509224503 53 243 5.2 10.4 0.00 0.24 0.24 82 998.6
20260509223603 52 230 4.3 9.6 0.00 0.24 0.24 85 998.4
20260509222703 52 218 5.2 8.7 0.00 0.24 0.24 85 998.3
20260509221803 52 208 6.1 10.4 0.00 0.24 0.24 86 998.3
20260509220903 52 206 6.1 10.4 0.00 0.24 0.24 86 998.4
20260509220003 52 210 6.1 10.4 0.00 0.24 0.24 87 998.4
20260509215403 51 204 7.8 11.3 0.00 0.24 0.24 87 998.4
20260509214503 51 196 7.8 15.6 0.00 0.24 0.24 88 998.4
20260509213624 51 192 8.7 13.0 0.01 0.24 0.24 87 998.3
20260509212703 51 182 7.8 14.8 0.03 0.24 0.24 86 998.2
20260509211803 51 184 8.7 14.8 0.12 0.24 0.24 87 998.3
20260509210903 50 189 9.6 14.8 0.15 0.24 0.24 87 998.4
20260509210003 49 194 7.8 13.0 0.24 0.24 0.24 88 998.3
20260509205424 49 191 8.7 14.8 0.24 0.24 0.24 88 998.4
20260509204524 48 189 9.6 16.5 0.24 0.24 0.24 88 998.3
20260509203603 48 200 8.7 16.5 0.23 0.23 0.23 90 998.2
20260509202703 49 256 11.3 17.4 0.21 0.21 0.21 87 998.8
20260509201803 52 210 10.4 18.2 0.12 0.12 0.12 84 998.8
20260509200903 52 204 12.2 19.1 0.09 0.09 0.09 82 997.7
20260509200003 57 192 13.0 25.2 0.00 0.00 0.00 68 997.4
20260509195403 59 198 14.8 32.2 0.00 0.00 0.00 63 996.8
20260509194503 59 189 15.6 30.4 0.00 0.00 0.00 61 996.7
20260509193603 60 184 11.3 27.8 0.00 0.00 0.00 58 996.2
20260509192703 61 186 11.3 26.9 0.00 0.00 0.00 58 996.4
20260509191803 61 178 11.3 26.9 0.00 0.00 0.00 57 996.7
20260509190924 61 185 15.6 29.5 0.00 0.00 0.00 57 996.7
20260509190003 61 186 16.5 27.8 0.00 0.00 0.00 55 996.8
20260509185403 61 188 14.8 24.3 0.00 0.00 0.00 54 996.8
20260509184524 61 186 16.5 27.8 0.00 0.00 0.00 54 996.8
20260509183624 61 181 13.9 27.8 0.00 0.00 0.00 53 997.0
20260509182703 61 180 12.2 20.0 0.00 0.00 0.00 54 997.0
20260509181803 61 180 11.3 21.7 0.00 0.00 0.00 56 996.9
20260509180903 60 177 10.4 21.7 0.00 0.00 0.00 56 997.0
20260509180003 60 173 11.3 20.0 0.00 0.00 0.00 56 997.4
20260509175424 59 182 12.2 20.9 0.00 0.00 0.00 56 997.3
20260509174503 58 189 13.9 23.5 0.00 0.00 0.00 60 997.8
20260509173624 59 181 13.0 24.3 0.00 0.00 0.00 56 998.2
20260509172703 59 175 11.3 25.2 0.00 0.00 0.00 56 997.9
20260509171803 59 174 11.3 24.3 0.00 0.00 0.00 59 998.0
20260509170903 59 185 10.4 20.0 0.00 0.00 0.00 58 998.3
20260509170024 59 178 9.6 17.4 0.00 0.00 0.00 58 998.5
20260509165403 60 173 9.6 20.0 0.00 0.00 0.00 60 998.4